Location: Brachowice
(52.0000°N, 19.4000°E)
Time: 11:50:28
(UTC+00:00)

Daily predictions for brighter satellites

Satellite Brightness Start Highest point End
(mag) Time Altitude Azimuth Time Altitude Azimuth Time Altitude Azimuth
Cosmos 2369 4.1 15:02:58 10° NNW 15:08:24 41° NE 15:13:48 10° ESE
CZ-4C R/B 3.1 15:02:31 10° NW 15:08:53 48° NNE 15:16:32 10° ESE
NOSS 3-1 (A) 4.1 15:01:42 10° NW 15:08:55 86° NE 15:17:32 10° SE
NOSS 3-1 (C) 4.5 15:01:50 10° NW 15:09:05 71° SW 15:17:39 10° SSE
NOSS 2-1 (D) 3.2 15:07:18 10° WSW 15:10:29 59° NW 15:13:56 10° NE
NOAA 6 4.5 15:06:07 10° SE 15:10:52 39° ENE 15:15:38 10° N
USA 234 3.3 15:04:21 10° ESE 15:10:55 87° NNE 15:17:30 10° WNW
Sich 1 4.1 15:07:37 10° NNE 15:11:02 22° ENE 15:14:27 10° ESE
Cosmos 1092 Rocket 4.5 15:05:17 10° N 15:11:15 40° ENE 15:17:09 10° SE
Cosmos 1862 4.0 15:08:09 10° NNW 15:12:06 59° W 15:16:02 10° S
Cosmos 1805 Rocket 4.4 15:09:11 10° N 15:12:57 28° ENE 15:16:43 10° SE
Cosmos 1271 Rocket 3.0 15:09:16 10° SSW 15:13:13 78° WNW 15:17:15 10° N
NOSS 2-2 (D) 4.3 15:10:13 10° NW 15:14:47 52° NE 15:21:02 10° ESE
NOSS 2-2 (E) 4.2 15:10:23 10° NW 15:15:09 60° NE 15:21:47 10° ESE
Cosmos 2221 2.6 15:11:36 10° S 15:15:47 56° E 15:20:01 10° NNE
Envisat 4.2 15:12:08 10° S 15:17:03 48° W 15:21:59 10° NNW
SL-16 R/B 3.6 15:13:14 10° NNW 15:17:17 19° NNE 15:21:19 10° ENE
Cosmos 2237 Rocket 4.3 15:16:45 10° NNW 15:18:43 12° N 15:20:42 10° N
Meteor 1-25 Rocket 4.4 15:14:02 10° N 15:19:25 48° ENE 15:24:49 10° SE
Okean 3 Rocket 4.4 15:15:35 10° NNW 15:20:02 58° W 15:24:24 10° S
Cosmos 2084 3.7 15:15:51 10° NW 15:20:06 75° SW 15:24:32 10° SE
Cosmos 1842 Rocket 3.8 15:15:59 10° S 15:20:20 55° E 15:24:45 10° NNE
Cosmos 1513 Rocket 4.5 15:14:43 10° S 15:20:50 76° E 15:27:05 10° NNE
USA 306 3.0 15:19:02 10° W 15:23:17 71° N 15:27:32 10° ENE
Cosmos 2082 Rocket 3.7 15:21:30 10° SE 15:25:09 18° E 15:28:47 10° ENE
Cosmos 2333 Rocket 4.1 15:24:31 10° NNW 15:27:10 13° NNE 15:29:47 10° NE
ISS -3.5 15:24:16 10° W 15:27:40 72° SSW 15:31:04 10° ESE
Meteor 2-2 Rocket 4.4 15:21:59 10° S 15:28:01 85° ESE 15:34:02 10° NNE
SMAP 3.2 15:24:15 10° SE 15:28:44 50° ENE 15:33:15 10° N
CORIOLIS 4.4 15:23:35 10° SE 15:28:46 50° ENE 15:34:01 10° N
Cosmos 44 Rocket 4.2 15:26:23 10° NNW 15:30:50 31° NNE 15:35:10 10° E
NOAA 12 4.1 15:27:06 10° SSE 15:32:26 80° ENE 15:37:46 10° NNW
Cosmos 2278 4.2 15:27:07 10° NNW 15:32:27 38° NE 15:37:44 10° ESE
Cosmos 1939 Rocket 3.0 15:28:28 10° SSE 15:32:29 54° ENE 15:36:28 10° N
Meteor PRIRODA 3.6 15:29:29 10° SSE 15:33:07 86° ENE 15:36:46 10° NNW
CZ-4B DEB 4.4 15:29:25 10° SE 15:34:43 49° ENE 15:40:00 10° N
SL-16 R/B 4.3 15:34:30 10° NW 15:37:30 14° NNW 15:40:31 10° NNE
Cosmos 2034 Rocket 4.0 15:32:35 10° S 15:38:40 67° E 15:44:47 10° NNE
Cosmos 1602 4.0 15:36:37 10° N 15:40:21 46° ENE 15:44:05 10° SSE
Cosmos 540 Rocket 4.2 15:37:30 10° SSE 15:42:00 32° ESE 15:46:17 11° NE
USA 307 3.0 15:37:46 10° W 15:42:03 69° N 15:45:37 14° ENE
AQUARIUS 4.2 15:38:53 10° SSE 15:43:16 57° ENE 15:47:42 10° N
COSMOS 2406 3.8 15:39:57 10° S 15:45:13 38° ESE 15:50:05 12° NE
ARGOS 3.9 15:40:53 10° ESE 15:45:30 30° ENE 15:50:08 10° N
Cosmos 1833 Rocket 3.0 15:41:26 10° S 15:46:48 48° ESE 15:52:00 11° NE
COSMO-SKYMED 1 4.1 15:46:11 15° ENE 15:47:43 17° E 15:50:35 10° SE
SL-08 R/B 3.4 15:44:57 10° NNE 15:49:43 81° WNW 15:54:22 10° SSW
ATLAS CENTAUR R/B 3.5 15:42:13 10° SSW 15:51:42 48° SE 15:55:00 17° ENE
Cosmos 2219 Rocket 4.0 15:50:04 10° N 15:52:44 13° NNE 15:54:44 11° NE
Cosmos 1818 4.0 15:47:45 10° NW 15:53:00 42° NE 15:58:07 10° ESE
Cosmos 1782 3.5 15:51:23 10° SSE 15:54:58 33° E 15:58:12 12° NNE
Cosmos 468 Rocket 4.0 15:51:01 10° S 15:56:06 65° ESE 16:01:18 10° NNE
Cosmos 1633 Rocket 3.8 15:52:22 10° N 15:56:12 29° ENE 16:00:01 10° SE
Cosmos 1898 Rocket 3.8 15:51:46 10° NNW 15:57:02 74° WSW 16:02:14 10° SSE
ATLAS CENTAUR R/B 3.1 15:54:22 10° W 15:58:07 27° NNW 16:01:43 12° NNE
Cosmos 1634 Rocket 4.2 15:53:28 10° SSE 15:59:30 49° E 16:05:34 10° NNE
COSMOS 2455 3.5 15:55:46 10° S 16:01:10 36° ESE 16:05:04 18° ENE
GEOS 3 Rocket 4.1 15:56:50 12° E 16:01:14 41° NNE 16:06:04 10° NW
Cosmos 2026 Rocket 3.9 15:55:42 10° N 16:01:52 70° ENE 16:07:55 10° SSE
Cosmos 1606 4.1 15:58:39 10° SW 16:02:12 39° WNW 16:05:49 10° N
YAOGAN 1 3.9 16:02:26 19° NE 16:02:26 19° NE 16:05:14 10° NNE
Cosmos 1340 Rocket 3.9 15:58:50 10° NNW 16:02:47 50° W 16:06:44 10° S
CZ-2C R/B 3.4 15:59:04 12° NE 16:02:59 27° E 16:07:21 10° SSE
PAYLOAD B 4.2 15:58:45 10° SSE 16:04:18 65° ENE 16:09:52 10° NNW
USA 308 3.0 16:00:20 10° W 16:04:35 66° N 16:07:12 22° ENE
Cosmos 2195 Rocket 4.4 15:59:11 10° N 16:05:23 84° E 16:11:35 10° S
CZ-2D R/B 3.2 16:02:45 10° SSE 16:06:32 58° ENE 16:10:18 10° N
CZ-2C R/B 3.9 16:02:06 10° S 16:06:50 48° W 16:11:28 10° NNW
ERBS 2.9 16:03:54 10° W 16:06:58 41° NNW 16:08:26 24° NE
CZ-4B R/B 3.3 16:01:59 10° SE 16:07:10 50° ENE 16:12:18 10° N
Meteor 2-14 Rocket 4.4 16:01:31 10° N 16:07:39 72° ENE 16:13:42 10° SSE
Cosmos 1500 3.0 16:06:30 10° N 16:10:15 63° ENE 16:13:57 10° SSE
Cosmos 1743 Rocket 4.2 16:06:27 10° NNW 16:10:42 58° W 16:14:57 10° S
NOSS 2-2 (C) 4.3 16:07:24 10° NW 16:12:19 83° SW 16:19:13 10° SE
Cosmos 1151 Rocket 3.8 16:08:59 10° SSE 16:12:46 31° E 16:14:34 22° NE
Lacrosse 5 rocket 1.3 16:09:02 10° WNW 16:12:51 58° NNE 16:14:59 25° E
Okean O Rocket 2.0 16:11:21 10° SE 16:15:32 41° ENE 16:19:45 10° N
Meteor 1-11 Rocket 4.5 16:13:35 10° N 16:18:25 29° ENE 16:22:50 12° ESE
USA 267 3.3 16:13:43 20° ENE 16:18:34 76° SSE 16:25:07 10° SW
Cosmos 1655 Rocket 4.5 16:13:21 10° N 16:19:16 37° ENE 16:25:07 10° SE
CZ-4 R/B 3.2 16:23:40 16° NNE 16:23:40 16° NNE 16:24:46 10° N
Cosmos 1666 Rocket 3.6 16:17:43 10° N 16:22:09 57° ENE 16:26:29 10° SSE
Meteor 1-26 Rocket 4.3 16:17:28 10° S 16:23:23 67° E 16:29:24 10° NNE
Cosmos 2360 Rocket 3.3 16:19:53 10° NNW 16:24:27 24° NE 16:25:22 23° NE
H-2A R/B 1.9 16:19:20 10° SSE 16:24:29 81° ENE 16:29:32 10° NNW
Cosmos 1470 Rocket 4.2 16:21:11 10° N 16:25:15 33° ENE 16:29:18 10° SE
Cosmos 1763 Rocket 3.7 16:24:17 10° SSW 16:29:20 70° WNW 16:33:54 13° NNE
Cosmos 1328 Rocket 4.2 16:26:06 10° SSE 16:30:04 33° E 16:30:24 33° E
Meteor 2-21 Rocket 4.3 16:24:33 10° N 16:30:43 79° ENE 16:36:47 10° SSE
USA 305 2.9 16:27:01 10° WNW 16:31:15 68° N 16:32:46 37° ENE
COSMOS 2428 4.4 16:29:50 10° NNW 16:33:16 16° NNE 16:33:40 16° NNE
Cosmos 1933 3.7 16:30:55 10° SSW 16:34:57 65° WNW 16:38:58 10° N
PSLV R/B 4.2 16:31:28 10° S 16:35:07 59° WSW 16:38:50 10° NNW
Cosmos 841 Rocket 3.4 16:30:35 10° SSW 16:35:42 67° ESE 16:38:47 24° NE
SKYMED 2 3.8 16:34:47 33° NE 16:36:12 45° E 16:40:21 10° S
Cosmos 1937 Rocket 4.5 16:31:48 10° NNW 16:36:56 50° WSW 16:42:03 10° S
MOS 1-B 4.4 16:31:55 10° SSE 16:37:42 80° WSW 16:43:32 10° NNW
Cosmos 1666 2.4 16:36:00 10° N 16:39:44 76° ENE 16:43:27 10° SSE
Cosmos 1125 Rocket 3.8 16:35:01 10° NNW 16:40:02 44° ENE 16:41:53 32° ESE
SL-24 R/B - RUBIN 2 4.5 16:38:47 10° NW 16:43:12 49° SW 16:47:22 10° SSE
NOSS 3-4 (A) 4.5 16:38:18 10° NW 16:44:08 34° NNE 16:46:32 27° NE
NOSS 3-4 (C) 4.5 16:38:24 10° NW 16:44:13 34° NNE 16:46:37 27° NE
Cosmos 2322 Rocket 2.6 16:39:23 10° NNW 16:44:45 40° NE 16:45:58 36° ENE
Cosmos 1697 Rocket 4.3 16:41:14 10° NW 16:46:17 35° WSW 16:51:20 10° S
ATLAS 2AS CENTAUR R/B 3.8 16:39:51 10° WNW 16:46:41 34° N 16:50:01 24° NE
Sich 1 4.0 16:44:49 10° NNW 16:48:57 47° W 16:53:04 10° SSW
Cosmos 1980 Rocket 2.8 16:45:18 10° NW 16:50:52 59° WSW 16:56:23 10° SSE
Meteor 1-14 Rocket 4.4 16:45:50 10° NNW 16:51:40 82° W 16:57:35 10° S
USA 234 4.4 16:48:16 10° SSE 16:54:22 41° SW 17:00:30 10° WNW
Meteor 1-5 Rocket 4.4 16:50:37 10° NNW 16:56:38 83° W 17:02:34 10° S
CZ-4C R/B 3.1 16:50:58 10° NW 16:57:59 73° SW 17:06:19 10° SSE
SL-08 RB Rocket 3.6 16:53:29 10° SSE 16:58:06 71° ENE 17:02:42 10° N
Cosmos 1812 2.7 16:58:02 10° SSW 17:01:54 81° WNW 17:02:43 54° N
SL-16 R/B 2.2 16:56:56 10° NNW 17:02:35 61° NE 17:04:16 43° ESE
MOS 1-B Rocket 4.0 16:57:16 10° NNE 17:03:06 88° WNW 17:09:40 10° SSW
USA 306 2.7 16:59:08 10° WNW 17:03:23 75° N 17:03:35 73° NE
ISS -1.9 17:01:17 10° W 17:04:10 26° SSW 17:04:58 24° S
deb Chang Zheng 4 4.0 17:01:06 10° S 17:05:22 61° WSW 17:09:40 10° NNW
Cosmos 2237 Rocket 4.2 17:02:49 10° N 17:05:11 13° NNE 17:05:11 13° NNE
Cosmos 2082 Rocket 2.1 17:02:45 10° SSW 17:08:26 88° ESE 17:10:43 38° NNE
Cosmos 44 Rocket 3.3 17:07:53 10° NW 17:12:51 76° SW 17:14:23 43° SSE
Cosmos 2333 Rocket 3.4 17:08:34 10° NNW 17:12:25 27° NNE 17:12:25 27° NNE
Cosmos 2278 4.5 17:11:17 10° NW 17:16:50 52° WSW 17:22:18 10° S
USA 307 3.1 17:17:52 10° WNW 17:21:38 66° NW 17:21:38 66° NW
Cosmos 540 Rocket 4.4 17:18:34 10° SW 17:23:28 45° WNW 17:26:07 25° N
COSMO-SKYMED 1 2.8 17:23:24 50° NNW 17:24:19 66° WNW 17:28:37 10° SSW
SL-16 R/B 4.4 17:22:28 10° NNW 17:24:21 12° N 17:24:24 12° N
ARGOS 3.8 17:20:13 10° S 17:25:31 55° W 17:30:51 10° NNW
Cosmos 2298 Rocket 4.0 17:21:24 10° NNW 17:26:46 80° WSW 17:28:50 38° SSE
Cosmos 2279 Rocket 4.2 17:21:33 10° SSW 17:27:43 67° WNW 17:33:56 10° N
Cosmos 1570 Rocket 3.9 17:22:41 10° SSW 17:27:57 87° WNW 17:28:36 69° NNE
Cosmos 2266 Rocket 4.0 17:22:33 10° N 17:28:58 87° W 17:35:24 10° S
COSMOS 2406 4.0 17:23:53 10° SW 17:29:26 48° NW 17:32:10 28° N
Cosmos 1833 Rocket 3.8 17:25:37 10° WSW 17:30:52 39° NW 17:33:42 24° N
Cosmos 1814 Rocket 4.1 17:27:37 10° SSW 17:32:50 72° WNW 17:33:45 58° N
ATLAS 5 CENTAUR R/B 2.5 17:26:50 10° NW 17:33:08 56° WSW 17:33:08 56° WSW
Cosmos 1818 4.2 17:31:25 10° NW 17:36:46 55° WSW 17:38:50 35° S
Meteor 2-15 Rocket 4.3 17:30:43 10° S 17:36:49 77° E 17:37:33 68° NE
YAOGAN 1 3.8 17:39:35 35° NNW 17:39:35 35° NNW 17:42:12 10° NNW
ATLAS CENTAUR R/B 3.8 17:35:22 10° NW 17:37:49 17° NNW 17:37:49 17° NNW
Cosmos 2219 Rocket 3.7 17:33:34 10° NNW 17:36:27 24° N 17:36:27 24° N
GEOS 3 Rocket 3.9 17:37:58 50° S 17:39:08 65° SW 17:44:19 10° NW
Meteor 2-6 Rocket 4.5 17:36:59 10° SSW 17:42:41 68° WNW 17:45:14 33° N
CZ-2C R/B 3.2 17:40:35 24° N 17:43:35 53° WNW 17:48:35 10° SW
USA 308 4.1 17:40:24 10° WNW 17:43:13 41° WNW 17:43:13 41° WNW
COSMOS 2455 3.3 17:40:57 10° SW 17:46:54 59° NW 17:48:13 48° N
Lacrosse 5 rocket 3.0 17:48:09 10° WNW 17:50:36 31° W 17:50:36 31° W
Okean O Rocket 3.6 17:48:10 10° SSW 17:52:01 28° W 17:55:53 10° NW
CZ-4 R/B 4.1 17:59:39 13° NNW 17:59:39 13° NNW 18:00:12 10° NNW
USA 267 3.3 18:01:03 62° N 18:01:33 64° NNW 18:08:00 10° W
Meteor 1-11 Rocket 4.3 17:56:43 10° NNW 18:02:11 56° W 18:05:45 22° SSW
Cosmos 2360 Rocket 3.1 18:03:35 10° NNW 18:07:10 40° NNW 18:07:10 40° NNW
ATLAS CENTAUR R/B 4.1 18:17:15 10° W 18:20:43 27° WNW 18:20:43 27° WNW
Cosmos 2322 Rocket 3.3 18:23:29 10° NW 18:27:49 42° WNW 18:27:49 42° WNW
NOSS 3-4 (A) 4.4 18:29:25 10° NW 18:33:59 46° NNW 18:33:59 46° NNW
NOSS 3-4 (C) 4.4 18:29:31 10° NW 18:34:04 46° NNW 18:34:04 46° NNW
ATLAS 2AS CENTAUR R/B 3.8 18:32:13 10° NW 18:37:26 38° NNW 18:37:26 38° NNW
SL-16 R/B 3.9 18:41:33 10° NW 18:46:11 29° WSW 18:46:11 29° WSW
Cosmos 2082 Rocket 4.1 18:48:36 10° W 18:52:35 25° NW 18:52:35 25° NW
Cosmos 2333 Rocket 4.3 18:52:39 10° NNW 18:54:27 21° NW 18:54:27 21° NW
